User: anonymous   Login
Location: Unspecified
(0.0000°N, 0.0000°E)
Time: 12:45:06
(UTC+00:00)
Language:

CRRES - Orbit

View from above orbital plane
View from above orbital plane
View from above satellite
View from above satellite

Ground track
Ground track

The orbit data is extracted from the following two-line orbital elements,

1 20712U 90065A   18200.93360638 -.00000257  00000-0  13599-3 0  9996
2 20712  17.8004 103.6535 7111336 149.1876 285.2943  2.46136437238254
Epoch (UTC): 19 July 2018 22:24:23
Eccentricity: 0.7111336
inclination: 17.8004°
perigee height: 315 km
apogee height: 33271 km
right ascension of ascending node: 103.6535°
argument of perigee: 149.1876°
revolutions per day: 2.46136437
mean anomaly at epoch: 285.2943°
orbit number at epoch: 23825

The dashed part of the orbit path shows where the satellite is in the earth's shadow,  

DLR